Regional Weather Roundup
Issued by NWS

Home | Current Version | Previous Version | Text Only | Print | Product List | Glossary On
Versions: 1 2 3 4 5 6 7 8 9 10 11 12 13 14 15 16 17 18 19 20 21 22 23 24 25 26 27 28 29 30 31 32 33 34 35 36 37 38 39 40 41 42 43 44 45 46 47 48 49 50
000
ASUS46 KSEW 260910
RWRWA

WASHINGTON REGIONAL WEATHER ROUNDUP
NATIONAL WEATHER SERVICE SEATTLE WA
200 AM PDT TUE SEP 26 2017

NOTE:"FAIR" INDICATES FEW OR NO CLOUDS BELOW 12,000 FEET WITH NO
SIGNIFICANT WEATHER AND/OR OBSTRUCTIONS TO VISIBILITY.

WAZ507-509-555>559-261000-
SEATTLE, TACOMA, EVERETT, AND VICINITY

CITY           SKY/WX    TMP DP  RH WIND       PRES   REMARKS
EVERETT        CLEAR     58  54  86 E6        30.16R
BOEING FIELD   CLEAR     59  54  83 CALM      30.14R
RENTON         CLEAR     57  55  93 S3        30.14R
SEATAC AIRPORT PTCLDY    59  54  83 CALM      30.15R
JBLM-MCCHORD   CLOUDY    56  56 100 CALM      30.15R
PUYALLUP       CLOUDY    55  55 100 CALM      30.15R
BREMERTON      CLOUDY    57  56  96 CALM      30.15R
JBLM-FT LEWIS  CLOUDY    56  56  99 CALM      30.14R
TACOMA NARROWS CLOUDY    59  55  87 CALM      30.15R
$$

WAZ001-503-506-510-514-515-261000-
NORTH INTERIOR

CITY           SKY/WX    TMP DP  RH WIND       PRES   REMARKS
BELLINGHAM     FAIR      53  53 100 CALM      30.15R
FRIDAY HARBOR  PTCLDY    50  50 100 CALM      30.16R
EASTSOUND      CLEAR     52  52 100 CALM      30.15S
PORT ANGELES   CLEAR     51  51 100 SW5       30.16R
EDIZ HOOK      FAIR      52  51  97 SW3       30.16R
PORT TOWNSEND  FAIR      50  50 100 CALM      30.15R FOG
NAS WHIDBEY    PTCLDY    54  49  83 CALM      30.19R
ARLINGTON      CLEAR     51  51 100 CALM      30.16R
BURLINGTON     PTCLDY    55  55 100 CALM      30.15R
$$

WAZ020-022-039-040-504-511-512-261000-
SOUTHWEST INTERIOR

CITY           SKY/WX    TMP DP  RH WIND       PRES   REMARKS
SHELTON        CLOUDY    54  54 100 CALM      30.12R
OLYMPIA        PTCLDY    55  55 100 E5        30.14R
CHEHALIS       CLOUDY    57  57 100 CALM      30.14R
KELSO          CLOUDY    59  57  93 CALM      30.13S
VANCOUVER      PTCLDY    60  59  96 NW3       30.12R
SCAPPOOSE, OR  MOCLDY    57  55  93 CALM      30.12R
PORTLAND, OR   CLOUDY    61  58  90 NW5       30.12R
$$

WAZ021-516-517-261000-
WASHINGTON COAST

CITY           SKY/WX    TMP DP  RH WIND       PRES   REMARKS
FORKS          CLOUDY    59  58  96 CALM      30.14R
HOQUIAM        CLOUDY    60  60 100 CALM      30.13S
ASTORIA, OR    CLOUDY    59  57  93 CALM      30.12R
$$

WAZ019-023-024-040-567>569-261000-
CASCADE MOUNTAINS AND COLUMBIA GORGE

CITY           SKY/WX    TMP DP  RH WIND       PRES   REMARKS
STAMPEDE PASS  NOT AVBL
TROUTDALE, OR  CLOUDY    63  57  81 CALM      30.11S
HOOD RIVER, OR NOT AVBL
THE DALLES, OR CLEAR     62  52  69 NW7       30.08R
$$

WAZ026-027-041>044-520-521-261000-
EAST SLOPES

CITY           SKY/WX    TMP DP  RH WIND       PRES   REMARKS
OMAK           CLEAR     55  47  74 N10       30.09R
WENATCHEE      PTCLDY    58  46  64 N10       30.09R
ELLENSBURG     PTCLDY    48  43  82 NE6       30.11R
YAKIMA         CLEAR     50  45  83 W7        30.10R
SUNNYSIDE ARPT CLOUDY    51  49  93 CALM      30.08S
YAKIMA TC      FAIR      49  44  82 E6        30.08R
$$

WAZ028-034-035-261000-
COLUMBIA BASIN

CITY           SKY/WX    TMP DP  RH WIND       PRES   REMARKS
EPHRATA        PTCLDY    52  41  66 N5        30.07R
MOSES LAKE     CLEAR     47  42  83 CALM      30.08R
PASCO          CLOUDY    64  53  67 SE3       30.07S
RICHLAND ARPT  CLOUDY    62  54  74 CALM      30.07R
HERMISTON, OR  CLOUDY    60  51  72 CALM      30.08R
$$

WAZ036>038-261000-
NORTHEAST WASHINGTON

CITY           SKY/WX    TMP DP  RH WIND       PRES   REMARKS
SPOKANE GEIGER PTCLDY    50  45  83 S6        30.11R
SPOKANE FELTS  CLEAR     52  48  86 NE3       30.11S
FAIRCHILD AFB  CLEAR     49  45  85 SE3       30.10S
COEURDALENE,ID CLOUDY    54  49  83 S8        30.12S
DEER PARK      CLOUDY    50  46  86 CALM      30.11R
$$

WAZ029>033-261000-
SOUTHEAST WASHINGTON

CITY           SKY/WX    TMP DP  RH WIND       PRES   REMARKS
PULLMAN        PTCLDY    53  43  68 NE5       30.14R
LEWISTON, ID   PTCLDY    58  48  69 E8        30.10R
WALLA WALLA    CLEAR     61  50  67 S8        30.09R
PENDLETON, OR  PTCLDY    55  48  77 E3        30.10R
$$



USA.gov is the U.S. government's official web portal to all federal, state and local government web resources and services.